When you browse on this site, cookies collect data to enhance your experience and personalize the content and advertising you see.
Visit our Privacy Policy to learn more. By continuing to use the site, you agree to this use of cookies and data.
  • In Hungary
  • List of Countries
  • For 7 days
  • Water Temperature
  • Satellite Maps
  • Weather Map
  • News
  • Weather Widgets
  • user-avatar
    Login

    Hourly Weather Lowech

    Today, 26 April, Friday

    Time Temperature Precipitation Wind Pressure Humidity
    00:00 +15°C° 0 mm 1 mps 740 mmHg 78%
    01:00 +15°C° 0 mm 1 mps 740 mmHg 79%
    02:00 +14°C° 0 mm 1 mps 740 mmHg 82%
    03:00 +14°C° 0 mm 1 mps 740 mmHg 82%
    04:00 +14°C° 0 mm 1 mps 740 mmHg 83%
    05:00 +13°C° 0 mm 1 mps 739 mmHg 83%
    06:00 +15°C° 0 mm 1 mps 740 mmHg 78%
    07:00 +18°C° 0 mm 1 mps 740 mmHg 73%
    08:00 +20°C° 0 mm 1 mps 740 mmHg 67%
    09:00 +21°C° 0 mm 1 mps 740 mmHg 63%
    10:00 +22°C° 0 mm 1 mps 739 mmHg 59%
    11:00 +24°C° 0 mm 1 mps 739 mmHg 55%
    12:00 +24°C° 0 mm 1 mps 739 mmHg 53%
    13:00 +25°C° 0 mm 1 mps 739 mmHg 50%
    14:00 +26°C° 0 mm 1 mps 738 mmHg 48%
    15:00 +26°C° 0 mm 1 mps 738 mmHg 48%
    16:00 +26°C° 0 mm 1 mps 738 mmHg 49%
    17:00 +26°C° 0 mm 1 mps 738 mmHg 49%
    18:00 +23°C° 0 mm 1 mps 737 mmHg 55%
    19:00 +20°C° 0 mm 2 mps 737 mmHg 62%
    20:00 +18°C° 0 mm 2 mps 737 mmHg 68%
    21:00 +18°C° 0 mm 2 mps 737 mmHg 70%
    22:00 +17°C° 0 mm 2 mps 737 mmHg 73%
    23:00 +16°C° 0 mm 2 mps 737 mmHg 75%

    Tomorrow, 27 April, Saturday

    Time Temperature Precipitation Wind Pressure Humidity
    00:00 +16°C° 0 mm 2 mps 737 mmHg 77%
    01:00 +16°C° 0 mm 2 mps 737 mmHg 79%
    02:00 +15°C° 0 mm 2 mps 737 mmHg 81%
    03:00 +15°C° 0 mm 2 mps 736 mmHg 82%
    04:00 +15°C° 0 mm 2 mps 736 mmHg 82%
    05:00 +15°C° 0 mm 2 mps 736 mmHg 83%
    06:00 +16°C° 0 mm 1 mps 736 mmHg 78%
    07:00 +19°C° 0 mm 1 mps 736 mmHg 73%
    08:00 +21°C° 0 mm 1 mps 736 mmHg 68%
    09:00 +23°C° 0 mm 1 mps 735 mmHg 61%
    10:00 +25°C° 0 mm 1 mps 735 mmHg 55%
    11:00 +24°C° 0 mm 0 mps 735 mmHg 48%
    12:00 +27°C° 0 mm 1 mps 734 mmHg 46%
    13:00 +27°C° 0 mm 1 mps 734 mmHg 44%
    14:00 +28°C° 0 mm 1 mps 733 mmHg 42%
    15:00 +26°C° 0 mm 1 mps 733 mmHg 49%
    16:00 +25°C° 0 mm 2 mps 732 mmHg 57%
    17:00 +24°C° 0 mm 2 mps 732 mmHg 64%
    18:00 +23°C° 0 mm 2 mps 732 mmHg 67%
    19:00 +20°C° 0 mm 2 mps 732 mmHg 70%
    20:00 +19°C° 0 mm 3 mps 732 mmHg 73%
    21:00 +18°C° 0.5 mm 3 mps 732 mmHg 77%
    22:00 +17°C° 0.5 mm 3 mps 732 mmHg 82%
    23:00 +15°C° 0.5 mm 4 mps 732 mmHg 87%

    Day after tomorrow, 28 April, Sunday

    Time Temperature Precipitation Wind Pressure Humidity
    00:00 +16°C° 1.4 mm 3 mps 732 mmHg 90%
    01:00 +14°C° 1.4 mm 3 mps 732 mmHg 92%
    02:00 +14°C° 1.4 mm 3 mps 732 mmHg 95%
    03:00 +14°C° 0.3 mm 2 mps 732 mmHg 95%
    04:00 +14°C° 0.3 mm 2 mps 732 mmHg 94%
    05:00 +13°C° 0.3 mm 1 mps 732 mmHg 94%
    06:00 +14°C° 0 mm 2 mps 732 mmHg 89%
    07:00 +14°C° 0 mm 3 mps 732 mmHg 84%
    08:00 +14°C° 0 mm 4 mps 733 mmHg 79%
    09:00 +15°C° 0.1 mm 4 mps 733 mmHg 74%
    10:00 +17°C° 0.1 mm 4 mps 733 mmHg 69%
    11:00 +18°C° 0.1 mm 4 mps 733 mmHg 64%
    12:00 +19°C° 0.4 mm 4 mps 733 mmHg 63%
    13:00 +19°C° 0.4 mm 4 mps 732 mmHg 61%
    14:00 +19°C° 0.4 mm 4 mps 732 mmHg 59%
    15:00 +19°C° 0.4 mm 4 mps 732 mmHg 63%
    16:00 +18°C° 0.4 mm 4 mps 732 mmHg 67%
    17:00 +17°C° 0.4 mm 4 mps 732 mmHg 71%
    18:00 +14°C° 0 mm 3 mps 732 mmHg 75%
    19:00 +14°C° 0 mm 2 mps 732 mmHg 80%
    20:00 +12°C° 0 mm 1 mps 732 mmHg 84%
    21:00 +12°C° 0 mm 1 mps 733 mmHg 84%
    22:00 +12°C° 0 mm 1 mps 733 mmHg 84%
    23:00 +12°C° 0 mm 1 mps 733 mmHg 83%

    29 April, Monday

    Time Temperature Precipitation Wind Pressure Humidity
    00:00 +10°C° 0 mm 2 mps 733 mmHg 83%
    01:00 +10°C° 0 mm 2 mps 733 mmHg 83%
    02:00 +9°C° 0 mm 2 mps 733 mmHg 83%
    03:00 +9°C° 0 mm 2 mps 733 mmHg 82%
    04:00 +9°C° 0 mm 3 mps 733 mmHg 80%
    05:00 +9°C° 0 mm 3 mps 733 mmHg 79%
    06:00 +10°C° 0 mm 3 mps 733 mmHg 76%
    07:00 +13°C° 0 mm 2 mps 733 mmHg 74%
    08:00 +14°C° 0 mm 2 mps 734 mmHg 71%
    09:00 +15°C° 0 mm 2 mps 734 mmHg 66%
    10:00 +17°C° 0 mm 3 mps 734 mmHg 60%
    11:00 +18°C° 0 mm 3 mps 734 mmHg 54%
    12:00 +19°C° 0.2 mm 3 mps 733 mmHg 53%
    13:00 +19°C° 0.2 mm 2 mps 733 mmHg 53%
    14:00 +20°C° 0.2 mm 2 mps 732 mmHg 52%
    15:00 +21°C° 0.3 mm 1 mps 732 mmHg 54%
    16:00 +20°C° 0.3 mm 1 mps 732 mmHg 56%
    17:00 +20°C° 0.3 mm 1 mps 731 mmHg 58%
    18:00 +18°C° 0.3 mm 1 mps 731 mmHg 64%
    19:00 +15°C° 0.3 mm 1 mps 731 mmHg 70%
    20:00 +14°C° 0.3 mm 1 mps 731 mmHg 76%
    21:00 +13°C° 0 mm 1 mps 731 mmHg 77%
    22:00 +13°C° 0 mm 1 mps 731 mmHg 78%
    23:00 +12°C° 0 mm 1 mps 732 mmHg 79%

    30 April, Tuesday

    Time Temperature Precipitation Wind Pressure Humidity
    00:00 +12°C° 0 mm 1 mps 731 mmHg 79%
    01:00 +12°C° 0 mm 1 mps 731 mmHg 78%
    02:00 +12°C° 0 mm 1 mps 731 mmHg 78%
    03:00 +12°C° 0.2 mm 1 mps 731 mmHg 83%
    04:00 +12°C° 0.2 mm 1 mps 731 mmHg 88%
    05:00 +10°C° 0.2 mm 2 mps 731 mmHg 93%
    06:00 +12°C° 0 mm 2 mps 731 mmHg 91%
    07:00 +12°C° 0 mm 2 mps 731 mmHg 90%
    08:00 +13°C° 0 mm 2 mps 732 mmHg 88%
    09:00 +14°C° 0 mm 1 mps 732 mmHg 83%
    10:00 +15°C° 0 mm 1 mps 731 mmHg 78%
    11:00 +16°C° 0 mm 1 mps 731 mmHg 72%
    12:00 +18°C° 0.1 mm 1 mps 731 mmHg 69%
    13:00 +18°C° 0.1 mm 2 mps 731 mmHg 66%
    14:00 +18°C° 0.1 mm 2 mps 730 mmHg 63%
    15:00 +17°C° 1.1 mm 2 mps 730 mmHg 69%
    16:00 +16°C° 1.1 mm 2 mps 730 mmHg 76%
    17:00 +15°C° 1.1 mm 2 mps 729 mmHg 82%
    18:00 +14°C° 1 mm 2 mps 730 mmHg 86%
    19:00 +14°C° 1 mm 1 mps 730 mmHg 90%
    20:00 +13°C° 1 mm 1 mps 730 mmHg 94%
    21:00 +12°C° 2.1 mm 1 mps 730 mmHg 94%
    22:00 +12°C° 2.1 mm 1 mps 731 mmHg 95%
    23:00 +11°C° 2.1 mm 1 mps 731 mmHg 95%

    1 May, Wednesday

    Time Temperature Precipitation Wind Pressure Humidity
    00:00 +11°C° 0 mm 1 mps 731 mmHg 95%
    01:00 +10°C° 0 mm 1 mps 731 mmHg 94%
    02:00 +8°C° 0 mm 2 mps 731 mmHg 93%
    03:00 +8°C° 0 mm 2 mps 731 mmHg 92%
    04:00 +8°C° 0 mm 2 mps 731 mmHg 90%
    05:00 +8°C° 0 mm 2 mps 731 mmHg 89%
    06:00 +9°C° 0 mm 3 mps 731 mmHg 83%
    07:00 +11°C° 0 mm 4 mps 731 mmHg 78%
    08:00 +13°C° 0 mm 5 mps 731 mmHg 72%
    09:00 +14°C° 0 mm 5 mps 731 mmHg 68%
    10:00 +15°C° 0 mm 5 mps 731 mmHg 64%
    11:00 +16°C° 0 mm 5 mps 732 mmHg 61%
    12:00 +16°C° 0.3 mm 5 mps 731 mmHg 61%
    13:00 +16°C° 0.3 mm 5 mps 731 mmHg 62%
    14:00 +17°C° 0.3 mm 5 mps 731 mmHg 63%
    15:00 +16°C° 0.2 mm 5 mps 731 mmHg 65%
    16:00 +16°C° 0.2 mm 5 mps 731 mmHg 66%
    17:00 +17°C° 0.2 mm 4 mps 731 mmHg 68%
    18:00 +14°C° 0 mm 3 mps 731 mmHg 74%
    19:00 +13°C° 0 mm 2 mps 732 mmHg 79%
    20:00 +12°C° 0 mm 1 mps 732 mmHg 85%
    21:00 +11°C° 0 mm 1 mps 732 mmHg 86%
    22:00 +11°C° 0 mm 1 mps 732 mmHg 86%
    23:00 +11°C° 0 mm 1 mps 732 mmHg 87%
    Show more